World > North America > United States > New York > Barneveld  

Barneveld, NY Hourly Weather Updates

Feedback E-mail the Weather

Quick Clicks

Barneveld, NY Weather Maps

°F °C°F °C
Barneveld Weather Map
UTC Time: 4/20/2024, 08:19
Your Time:

Barneveld, NY Regional Weather

Expires:202404200900;;060119
ASUS41 KBGM 200810
RWRBGM

REGIONAL WEATHER ROUNDUP
NATIONAL WEATHER SERVICE BINGHAMTON NY
400 AM EDT SAT APR 20 2024

Note: "fair" indicates few or no clouds below 12,000 feet with no
significant weather and/or obstructions to visibility.

* = Station(s) that does not report precipitation, such as rain, 
snow, etc, also no thunder or fog.


NYZ009-015>018-022>025-036-037-044>046-055>057-062-200900
...Central New York...
  
CITY           SKY/WX    TMP DP  RH WIND       PRES   REMARKS
Binghamton     CLOUDY    48  45  89 SW6       29.93S                  
Cortland       CLOUDY    46  43  87 CALM      29.94R                  
Dansville      PTCLDY    50  32  50 W5        30.00R                  
Elmira         CLOUDY    49  45  86 CALM      29.95R                  
Endicott       CLOUDY    48  48 100 CALM      29.94                   
Ithaca         CLOUDY    49  37  63 W10       29.95R                  
Hamilton       MOCLDY    48  39  71 CALM      29.92R                  
Monticello     NOT AVBL                                               
Norwich        CLOUDY    46  45  93 CALM      29.94F FOG              
Oneonta        CLOUDY    46  46 100 SW5       29.92S FOG              
Penn Yan       CLOUDY    48  33  56 W9        29.97R                  
Rome           CLOUDY    47  44  90 NW8       29.92F                  
Seneca Falls   PTSUNNY   45  34  65 N12       29.99R                  
Sidney         MOSUNNY   48  46  93 CALM      29.94S                  
Skaneateles    CLOUDY    48  37  66 VRB6G15   29.95R                  
Syracuse       CLOUDY    49  40  71 NW14      29.94R                  
$$
 

SKY/WX - Weather  TMP - Temperature  DP - Dew Point  RH - Humidity
WIND - Wind Direction/Speed PRES - Barometric Pressure VSB - Visibility
WCI - Wind Chill Index E13G22 Wind - East Wind 13 mph/Gusts of 22 mph

Trending Headlines

Trending Entertainment Headlines

Barneveld Radar Loop

Use the map search tool if you want to place a location marker on the radar map...

Barneveld Quick Facts

National Two Day Weather Forecast


E-mail the Barneveld Weather Forecast

Voice your opinion or tell us about page issues...